TimeEST,TemperatureF,Dew PointF,Humidity,Sea Level PressureIn,VisibilityMPH,Wind Direction,Wind SpeedMPH,Gust SpeedMPH,PrecipitationIn,Events,Conditions,WindDirDegrees,DateUTC
12:53 AM,19.0,14.0,81,30.10,10.0,South,9.2,-,N/A,,Clear,170,2013-01-07 05:53:00
1:53 AM,19.0,15.1,85,30.06,10.0,South,9.2,-,N/A,,Clear,170,2013-01-07 06:53:00
2:53 AM,19.9,15.1,81,30.03,10.0,South,10.4,-,N/A,,Clear,170,2013-01-07 07:53:00
3:53 AM,19.9,15.1,81,29.98,10.0,SSE,9.2,-,N/A,,Clear,160,2013-01-07 08:53:00
4:53 AM,19.0,12.9,77,29.94,10.0,SSE,8.1,-,N/A,,Clear,160,2013-01-07 09:53:00
5:53 AM,18.0,10.0,71,29.90,10.0,South,3.5,-,N/A,,Clear,170,2013-01-07 10:53:00
6:53 AM,19.4,10.4,68,29.78,10.0,South,13.8,-,N/A,,Clear,190,2013-01-07 11:53:00
7:53 AM,19.9,10.9,68,29.81,10.0,SSW,11.5,-,N/A,,Clear,200,2013-01-07 12:53:00
8:53 AM,21.9,12.0,66,29.78,10.0,SW,8.1,-,N/A,,Clear,220,2013-01-07 13:53:00
9:53 AM,28.0,17.1,63,29.75,10.0,SW,15.0,29.9,N/A,,Clear,230,2013-01-07 14:53:00
10:53 AM,30.0,19.0,64,29.73,10.0,SW,11.5,20.7,N/A,,Clear,230,2013-01-07 15:53:00
11:53 AM,32.0,19.9,61,29.72,10.0,West,19.6,29.9,N/A,,Clear,260,2013-01-07 16:53:00
12:53 PM,35.1,21.0,57,29.70,10.0,WSW,13.8,24.2,N/A,,Clear,250,2013-01-07 17:53:00
1:53 PM,37.0,21.0,52,29.68,10.0,WSW,19.6,28.8,N/A,,Clear,240,2013-01-07 18:53:00
2:53 PM,37.9,21.9,53,29.68,10.0,WSW,15.0,26.5,N/A,,Clear,250,2013-01-07 19:53:00
3:53 PM,39.0,21.9,50,29.68,10.0,WSW,19.6,31.1,N/A,,Clear,250,2013-01-07 20:53:00
4:53 PM,37.9,21.0,51,29.70,10.0,WSW,18.4,26.5,N/A,,Clear,250,2013-01-07 21:53:00
5:53 PM,37.0,19.9,50,29.71,10.0,WSW,12.7,21.9,N/A,,Clear,250,2013-01-07 22:53:00
6:53 PM,36.0,19.9,52,29.72,10.0,WSW,13.8,24.2,N/A,,Clear,240,2013-01-07 23:53:00
7:53 PM,35.1,19.9,54,29.74,10.0,WSW,16.1,27.6,N/A,,Clear,250,2013-01-08 00:53:00
8:53 PM,36.0,21.0,55,29.75,10.0,West,23.0,33.4,N/A,,Clear,260,2013-01-08 01:53:00
9:53 PM,35.1,23.0,61,29.78,10.0,West,23.0,35.7,N/A,,Clear,260,2013-01-08 02:53:00
10:53 PM,35.1,25.0,67,29.81,10.0,West,26.5,35.7,N/A,,Overcast,260,2013-01-08 03:53:00
11:27 PM,35.6,26.6,70,29.78,10.0,West,23.0,29.9,N/A,,Overcast,270,2013-01-08 04:27:00
11:53 PM,35.1,27.0,72,29.83,10.0,West,23.0,28.8,N/A,,Overcast,280,2013-01-08 04:53:00